Location: *
(40.7765°S, 106.5327°E)
Time: 03:23:28
(UTC+00:00)

STARLINK-3512 - Visible Passes

Search period start: 28 January 2023 00:00
Search period end: 07 February 2023 00:00
Orbit: 539 x 540 km, 53.2° (Epoch: 27 January)

Date Brightness Start Highest point End Pass type
(mag) Time Alt. Az. Time Alt. Az. Time Alt. Az.
01 Feb ? 20:22:05 10° NE 20:23:31 12° NE 20:24:58 10° ENE visible
02 Feb ? 20:12:40 11° NNE 20:14:43 15° NE 20:17:10 10° E visible
03 Feb ? 20:04:36 17° NNE 20:05:56 20° NE 20:08:59 10° E visible
04 Feb ? 19:56:28 24° NNE 19:57:11 26° NE 20:00:38 10° ESE visible
04 Feb ? 21:32:18 10° WNW 21:36:19 49° SSW 21:40:23 10° SE visible
05 Feb ? 19:48:16 33° NE 19:48:27 33° NE 19:52:11 10° ESE visible
05 Feb ? 21:23:49 10° WNW 21:27:44 40° SSW 21:31:41 10° SE visible
06 Feb ? 19:40:02 42° ENE 19:40:02 42° ENE 19:43:41 10° ESE visible
06 Feb ? 21:15:29 11° W 21:19:09 34° SSW 21:22:59 10° SE visible
